Вернуться в каталог

SL-12 DEB

LostHEO
NORAD 60011·DEBRIS·🇷🇺 Russia

Запущен Mar 1, 2010 с Baikonur Cosmodrome

Loading…

Ближайшие Пролёты (ближайшие 24 часа)

TLE

УстаревшееSource: Space-Track

Эпоха: Sep 18, 2025, 01:49 UTC

1 60011U 10007AU  25261.07571256  .00001348  00000-0  32417-2 0  9990
2 60011  64.0258 289.0681 5706694 353.5136   1.5404  4.27453034111337

Отслеживайте SL-12 DEB в реальном времени с AllMySat

Download on the App Store